This demonstration page uses our WeatherBlox Daily Observations layout. Learn more.

Left ArrowRight Arrow

Hourly Observations for January 16, 2017

Temp ( °F °C ) Dew Point ( °F °C ) Humidity (%) Winds ( mph kmh ) Pressure ( in mb ) Visibility ( mi km ) Precip ( " mm )
12:15 am 00:15 Cloudy 39 4 27 -3 61 61 undefined N/A 30.45 1031 10 16.0934 0 0
12:34 am 00:34 Cloudy 39 4 27 -3 61 61 undefined N/A 30.45 1031 10 16.0934 0 0
12:54 am 00:54 Cloudy 37 3 27 -3 65 65 undefined N/A 30.45 1031 10 16.0934 0 0
1:14 am 01:14 Cloudy 37 3 27 -3 65 65 undefined N/A 30.45 1031 10 16.0934 0 0
1:35 am 01:35 Cloudy 37 3 28 -2 70 70 undefined N/A 30.45 1031 10 16.0934 0 0
1:54 am 01:54 Cloudy 37 3 28 -2 70 70 undefined N/A 30.45 1031 10 16.0934 0 0
2:14 am 02:14 Cloudy 37 3 28 -2 70 70 undefined N/A 30.45 1031 10 16.0934 0 0
2:34 am 02:34 Cloudy 37 3 30 -1 75 75 undefined N/A 30.48 1032 10 16.0934 0 0
2:54 am 02:54 Cloudy 36 2 30 -1 81 81 undefined N/A 30.48 1032 10 16.0934 0 0
3:14 am 03:14 Cloudy 36 2 30 -1 81 81 undefined N/A 30.48 1032 10 16.0934 0 0
3:34 am 03:34 Cloudy 37 3 30 -1 75 75 undefined N/A 30.45 1031 10 16.0934 0 0
3:54 am 03:54 Cloudy 36 2 30 -1 81 81 undefined N/A 30.45 1031 10 16.0934 0 0
4:14 am 04:14 Cloudy 36 2 28 -2 75 75 undefined N/A 30.45 1031 10 16.0934 0 0
4:35 am 04:35 Cloudy 36 2 28 -2 75 75 undefined N/A 30.45 1031 10 16.0934 0 0
4:54 am 04:54 Cloudy 36 2 28 -2 75 75 undefined N/A 30.48 1032 10 16.0934 0 0
5:15 am 05:15 Cloudy 36 2 28 -2 75 75 undefined N/A 30.45 1031 10 16.0934 0 0
5:34 am 05:34 Cloudy 36 2 28 -2 75 75 undefined N/A 30.48 1032 10 16.0934 0 0
5:54 am 05:54 Cloudy 36 2 28 -2 75 75 undefined N/A 30.48 1032 10 16.0934 0 0
6:14 am 06:14 Cloudy 36 2 28 -2 75 75 undefined N/A 30.48 1032 10 16.0934 0 0
6:34 am 06:34 Cloudy 36 2 30 -1 81 81 undefined N/A 30.48 1032 10 16.0934 0 0
6:54 am 06:54 Cloudy 36 2 30 -1 81 81 undefined N/A 30.48 1032 10 16.0934 0 0
7:14 am 07:14 Cloudy 36 2 30 -1 81 81 undefined N/A 30.48 1032 10 16.0934 0 0
7:34 am 07:34 Cloudy 36 2 30 -1 81 81 undefined N/A 30.48 1032 10 16.0934 0 0
7:54 am 07:54 Cloudy 36 2 30 -1 81 81 undefined N/A 30.48 1032 10 16.0934 0 0
8:14 am 08:14 Cloudy 37 3 30 -1 75 75 undefined N/A 30.48 1032 10 16.0934 0 0
8:34 am 08:34 Cloudy 37 3 30 -1 75 75 undefined N/A 30.48 1032 10 16.0934 0 0
8:54 am 08:54 Cloudy 37 3 30 -1 75 75 undefined N/A 30.48 1032 10 16.0934 0 0
9:15 am 09:15 Cloudy 37 3 30 -1 75 75 undefined N/A 30.48 1032 10 16.0934 0 0
9:34 am 09:34 Cloudy 39 4 30 -1 70 70 undefined N/A 30.5 1033 10 16.0934 0 0
9:54 am 09:54 Cloudy 39 4 30 -1 70 70 undefined N/A 30.5 1033 10 16.0934 0 0
10:14 am 10:14 Cloudy 39 4 30 -1 70 70 undefined N/A 30.5 1033 10 16.0934 0 0
10:34 am 10:34 Cloudy 41 5 32 0 70 70 undefined N/A 30.5 1033 10 16.0934 0 0
10:55 am 10:55 Cloudy 43 6 32 0 66 66 undefined N/A 30.5 1033 10 16.0934 0 0
11:15 am 11:15 Cloudy 43 6 32 0 66 66 undefined N/A 30.48 1032 10 16.0934 0 0
11:34 am 11:34 Cloudy 43 6 34 1 71 71 undefined N/A 30.48 1032 10 16.0934 0 0
11:55 am 11:55 Cloudy 43 6 34 1 71 71 undefined N/A 30.48 1032 10 16.0934 0 0
12:16 pm 12:16 Cloudy 43 6 34 1 71 71 undefined N/A 30.45 1031 10 16.0934 0 0
12:34 pm 12:34 Cloudy 43 6 36 2 76 76 undefined N/A 30.42 1030 10 16.0934 0 0
12:54 pm 12:54 Cloudy 45 7 36 2 71 71 undefined N/A 30.42 1030 10 16.0934 0 0
1:14 pm 13:14 Cloudy 45 7 37 3 76 76 undefined N/A 30.42 1030 10 16.0934 0 0
1:34 pm 13:34 Cloudy 45 7 37 3 76 76 undefined N/A 30.42 1030 10 16.0934 0 0
1:54 pm 13:54 Cloudy 45 7 37 3 76 76 undefined N/A 30.39 1029 10 16.0934 0 0
2:14 pm 14:14 Cloudy 45 7 37 3 76 76 SSE 8 13 30.39 1029 10 16.0934 0 0
2:34 pm 14:34 Cloudy 45 7 37 3 76 76 undefined N/A 30.39 1029 10 16.0934 0 0
2:54 pm 14:54 Cloudy 46 8 39 4 76 76 S 8 13 30.39 1029 10 16.0934 0 0
3:14 pm 15:14 Cloudy 46 8 39 4 76 76 undefined N/A 30.39 1029 10 16.0934 0 0
3:34 pm 15:34 Cloudy 46 8 39 4 76 76 undefined N/A 30.39 1029 10 16.0934 0 0
3:54 pm 15:54 Cloudy 45 7 39 4 81 81 undefined N/A 30.39 1029 10 16.0934 0 0
4:14 pm 16:14 Cloudy 45 7 41 5 87 87 S 8 13 30.39 1029 10 16.0934 0 0
4:34 pm 16:34 Cloudy 45 7 41 5 87 87 SSW 7 11 30.39 1029 10 16.0934 0 0
4:55 pm 16:55 Cloudy 45 7 41 5 87 87 undefined N/A 30.39 1029 10 16.0934 0 0
5:14 pm 17:14 Cloudy 45 7 41 5 87 87 undefined N/A 30.39 1029 10 16.0934 0 0
5:34 pm 17:34 Cloudy 45 7 41 5 87 87 undefined N/A 30.39 1029 10 16.0934 0 0
5:55 pm 17:55 Cloudy 45 7 43 6 93 93 undefined N/A 30.39 1029 10 16.0934 0 0
6:15 pm 18:15 Cloudy 45 7 43 6 93 93 undefined N/A 30.39 1029 10 16.0934 0 0
6:34 pm 18:34 Cloudy 45 7 43 6 93 93 undefined N/A 30.39 1029 10 16.0934 0 0
6:54 pm 18:54 Cloudy 45 7 43 6 93 93 undefined N/A 30.36 1028 10 16.0934 0 0
7:14 pm 19:14 Cloudy 45 7 43 6 93 93 Calm 30.36 1028 10 16.0934 0 0
7:34 pm 19:34 Cloudy 45 7 43 6 93 93 undefined N/A 30.36 1028 10 16.0934 0 0
7:54 pm 19:54 Cloudy 45 7 43 6 93 93 undefined N/A 30.36 1028 10 16.0934 0 0
8:14 pm 20:14 Cloudy 45 7 43 6 93 93 undefined N/A 30.36 1028 10 16.0934 0 0
8:34 pm 20:34 Cloudy 45 7 41 5 87 87 undefined N/A 30.36 1028 10 16.0934 0 0
8:54 pm 20:54 Cloudy 45 7 39 4 81 81 undefined N/A 30.36 1028 10 16.0934 0 0
9:14 pm 21:14 Cloudy 45 7 37 3 76 76 undefined N/A 30.36 1028 10 16.0934 0 0
9:34 pm 21:34 Cloudy 45 7 37 3 76 76 undefined N/A 30.36 1028 10 16.0934 0 0
9:54 pm 21:54 Cloudy 45 7 37 3 76 76 undefined N/A 30.36 1028 10 16.0934 0 0
10:14 pm 22:14 Cloudy 45 7 37 3 76 76 undefined N/A 30.36 1028 10 16.0934 0 0
10:34 pm 22:34 Cloudy 45 7 37 3 76 76 undefined N/A 30.36 1028 10 16.0934 0 0
10:54 pm 22:54 Cloudy 45 7 37 3 76 76 undefined N/A 30.33 1027 10 16.0934 0 0
11:14 pm 23:14 Cloudy with Light Rain 43 6 39 4 87 87 undefined N/A 30.33 1027 10 16.0934 0 0
11:34 pm 23:34 Cloudy with Light Rain 43 6 39 4 87 87 undefined N/A 30.33 1027 10 16.0934 0 0
11:54 pm 23:54 Cloudy with Light Rain 43 6 39 4 87 87 undefined N/A 30.3 1026 10 16.0934 0 0

Powered by AerisWeather